Hourly Weather Abhar

Today, 27 November, Friday

Time Temperature Precipitation Wind Pressure Humidity
00:00 +3°C° 0.1 mm 3 mps 618 mmHg 91%
01:00 +4°C° 0.1 mm 2 mps 618 mmHg 92%
02:00 +4°C° 0.1 mm 2 mps 618 mmHg 92%
03:00 +4°C° 0 mm 1 mps 619 mmHg 93%
04:00 +4°C° 0.1 mm 1 mps 619 mmHg 93%
05:00 +4°C° 0.1 mm 1 mps 620 mmHg 94%
06:00 +3°C° 0.1 mm 1 mps 620 mmHg 94%
07:00 +2°C° 0.9 mm 2 mps 620 mmHg 94%
08:00 +2°C° 0.9 mm 2 mps 621 mmHg 94%
09:00 +2°C° 0 mm 2 mps 621 mmHg 92%
10:00 0°C° 1.4 mm 3 mps 622 mmHg 93%
11:00 -1°C° 1.4 mm 3 mps 622 mmHg 95%
12:00 -1°C° 1.4 mm 3 mps 622 mmHg 97%
13:00 -1°C° 0.1 mm 3 mps 622 mmHg 94%
14:00 -1°C° 0.1 mm 2 mps 622 mmHg 92%
15:00 +1°C° 0.1 mm 2 mps 623 mmHg 89%
16:00 -1°C° 0 mm 2 mps 623 mmHg 89%
17:00 -1°C° 0 mm 2 mps 623 mmHg 89%
18:00 -1°C° 0 mm 2 mps 624 mmHg 89%
19:00 -2°C° 0 mm 2 mps 624 mmHg 90%
20:00 -2°C° 0 mm 2 mps 624 mmHg 91%
21:00 -3°C° 0 mm 2 mps 624 mmHg 92%
22:00 -3°C° 0 mm 2 mps 624 mmHg 91%
23:00 -1°C° 0 mm 1 mps 624 mmHg 89%

Tomorrow, 28 November, Saturday

Time Temperature Precipitation Wind Pressure Humidity
00:00 -1°C° 0 mm 1 mps 624 mmHg 88%
01:00 -1°C° 0 mm 1 mps 624 mmHg 84%
02:00 0°C° 0 mm 1 mps 624 mmHg 81%
03:00 0°C° 0 mm 1 mps 624 mmHg 77%
04:00 +1°C° 0 mm 1 mps 624 mmHg 77%
05:00 +1°C° 0 mm 1 mps 624 mmHg 77%
06:00 +1°C° 0 mm 1 mps 624 mmHg 76%
07:00 +1°C° 0 mm 1 mps 625 mmHg 77%
08:00 +1°C° 0 mm 2 mps 625 mmHg 78%
09:00 +2°C° 0 mm 2 mps 625 mmHg 79%
10:00 +2°C° 0 mm 2 mps 625 mmHg 83%
11:00 +2°C° 0 mm 2 mps 624 mmHg 87%
12:00 +2°C° 0 mm 2 mps 623 mmHg 91%
13:00 +2°C° 0.1 mm 2 mps 623 mmHg 92%
14:00 +2°C° 0.1 mm 2 mps 623 mmHg 93%
15:00 +3°C° 0.1 mm 1 mps 623 mmHg 94%
16:00 +3°C° 0.2 mm 1 mps 623 mmHg 95%
17:00 +3°C° 0.2 mm 1 mps 623 mmHg 96%
18:00 +3°C° 0.2 mm 1 mps 623 mmHg 97%
19:00 +3°C° 0.2 mm 1 mps 623 mmHg 98%
20:00 +3°C° 0.2 mm 1 mps 623 mmHg 98%
21:00 +2°C° 0.2 mm 2 mps 623 mmHg 98%
22:00 +2°C° 0.2 mm 2 mps 623 mmHg 98%
23:00 +3°C° 0.2 mm 2 mps 623 mmHg 99%

Day after tomorrow, 29 November, Sunday

Time Temperature Precipitation Wind Pressure Humidity
00:00 +3°C° 0.2 mm 2 mps 622 mmHg 99%
01:00 +3°C° 0.3 mm 2 mps 622 mmHg 99%
02:00 +3°C° 0.3 mm 2 mps 622 mmHg 99%
03:00 +3°C° 0.3 mm 2 mps 621 mmHg 99%
04:00 +3°C° 1 mm 2 mps 621 mmHg 99%
05:00 +3°C° 1 mm 2 mps 621 mmHg 99%
06:00 +3°C° 1 mm 2 mps 621 mmHg 99%
07:00 +3°C° 1.6 mm 2 mps 621 mmHg 99%
08:00 +2°C° 1.6 mm 2 mps 621 mmHg 99%
09:00 +1°C° 1.6 mm 3 mps 621 mmHg 98%
10:00 +1°C° 2 mm 3 mps 620 mmHg 99%
11:00 +1°C° 2 mm 3 mps 620 mmHg 99%
12:00 +1°C° 2 mm 3 mps 620 mmHg 99%
13:00 0°C° 1.9 mm 3 mps 619 mmHg 99%
14:00 +1°C° 1.9 mm 2 mps 619 mmHg 98%
15:00 +1°C° 1.9 mm 2 mps 619 mmHg 98%
16:00 +1°C° 1.3 mm 2 mps 619 mmHg 98%
17:00 +1°C° 1.3 mm 2 mps 619 mmHg 98%
18:00 +1°C° 1.3 mm 2 mps 619 mmHg 98%
19:00 +1°C° 0.2 mm 2 mps 619 mmHg 98%
20:00 +1°C° 0.2 mm 2 mps 619 mmHg 97%
21:00 +2°C° 0.2 mm 1 mps 619 mmHg 97%
22:00 +2°C° 0.4 mm 1 mps 619 mmHg 97%
23:00 +2°C° 0.4 mm 1 mps 619 mmHg 97%

30 November, Monday

Time Temperature Precipitation Wind Pressure Humidity
00:00 +2°C° 0.4 mm 1 mps 619 mmHg 97%
01:00 +2°C° 0.8 mm 1 mps 619 mmHg 98%
02:00 +2°C° 0.8 mm 1 mps 619 mmHg 98%
03:00 +3°C° 0.8 mm 1 mps 619 mmHg 98%
04:00 +3°C° 0.2 mm 1 mps 619 mmHg 98%
05:00 +3°C° 0.2 mm 1 mps 619 mmHg 98%
06:00 +3°C° 0.2 mm 1 mps 619 mmHg 98%
07:00 +3°C° 0.1 mm 1 mps 619 mmHg 98%
08:00 +3°C° 0.1 mm 1 mps 620 mmHg 98%
09:00 +2°C° 0.1 mm 0 mps 620 mmHg 98%
10:00 +3°C° 0.1 mm 1 mps 620 mmHg 97%
11:00 +4°C° 0.1 mm 1 mps 620 mmHg 97%
12:00 +4°C° 0.1 mm 1 mps 619 mmHg 96%
13:00 +4°C° 0 mm 1 mps 619 mmHg 96%
14:00 +4°C° 0 mm 1 mps 619 mmHg 95%
15:00 +4°C° 0 mm 1 mps 619 mmHg 95%
16:00 +4°C° 0 mm 1 mps 619 mmHg 95%
17:00 +3°C° 0 mm 1 mps 619 mmHg 95%
18:00 +3°C° 0 mm 1 mps 619 mmHg 96%
19:00 +3°C° 0 mm 1 mps 619 mmHg 96%
20:00 +2°C° 0 mm 1 mps 619 mmHg 96%
21:00 +2°C° 0 mm 1 mps 619 mmHg 97%
22:00 +2°C° 0 mm 1 mps 620 mmHg 95%
23:00 +2°C° 0 mm 1 mps 620 mmHg 94%

1 December, Tuesday

Time Temperature Precipitation Wind Pressure Humidity
00:00 +2°C° 0 mm 1 mps 620 mmHg 93%
01:00 +2°C° 0 mm 1 mps 620 mmHg 92%
02:00 +2°C° 0 mm 1 mps 619 mmHg 90%
03:00 +1°C° 0 mm 1 mps 619 mmHg 88%
04:00 +1°C° 0 mm 1 mps 619 mmHg 88%
05:00 +1°C° 0 mm 1 mps 619 mmHg 87%
06:00 +1°C° 0 mm 1 mps 619 mmHg 87%
07:00 +2°C° 0 mm 1 mps 620 mmHg 87%
08:00 +3°C° 0 mm 1 mps 621 mmHg 87%
09:00 +4°C° 0 mm 1 mps 621 mmHg 87%
10:00 +5°C° 0 mm 1 mps 621 mmHg 86%
11:00 +5°C° 0 mm 1 mps 621 mmHg 85%
12:00 +6°C° 0 mm 1 mps 620 mmHg 83%
13:00 +6°C° 0 mm 1 mps 620 mmHg 82%
14:00 +6°C° 0 mm 1 mps 620 mmHg 81%
15:00 +6°C° 0 mm 1 mps 620 mmHg 79%
16:00 +5°C° 0 mm 1 mps 620 mmHg 81%
17:00 +4°C° 0 mm 1 mps 620 mmHg 83%
18:00 +3°C° 0 mm 1 mps 620 mmHg 84%
19:00 +3°C° 0 mm 1 mps 620 mmHg 86%
20:00 +3°C° 0 mm 1 mps 620 mmHg 87%
21:00 +2°C° 0 mm 0 mps 620 mmHg 89%
22:00 +2°C° 0 mm 0 mps 620 mmHg 89%
23:00 +2°C° 0 mm 0 mps 620 mmHg 89%

2 December, Wednesday

Time Temperature Precipitation Wind Pressure Humidity
00:00 +1°C° 0 mm 0 mps 620 mmHg 90%
01:00 +2°C° 0 mm 1 mps 620 mmHg 90%
02:00 +2°C° 0 mm 1 mps 620 mmHg 90%
03:00 +2°C° 0 mm 1 mps 620 mmHg 91%
04:00 +2°C° 0 mm 1 mps 620 mmHg 91%
05:00 +2°C° 0 mm 1 mps 620 mmHg 91%
06:00 +2°C° 0 mm 1 mps 620 mmHg 91%
07:00 +3°C° 0 mm 1 mps 620 mmHg 91%
08:00 +4°C° 0 mm 1 mps 621 mmHg 90%
09:00 +4°C° 0 mm 1 mps 621 mmHg 90%
10:00 +5°C° 0.1 mm 1 mps 621 mmHg 90%
11:00 +5°C° 0.1 mm 1 mps 621 mmHg 89%
12:00 +5°C° 0.1 mm 1 mps 621 mmHg 89%
13:00 +5°C° 0.2 mm 1 mps 621 mmHg 92%
14:00 +5°C° 0.2 mm 1 mps 620 mmHg 94%
15:00 +4°C° 0.2 mm 1 mps 620 mmHg 97%
16:00 +4°C° 0.4 mm 1 mps 620 mmHg 97%
17:00 +4°C° 0.4 mm 1 mps 620 mmHg 97%
18:00 +4°C° 0.4 mm 1 mps 620 mmHg 98%
19:00 +4°C° 0.4 mm 1 mps 620 mmHg 98%
20:00 +4°C° 0.4 mm 1 mps 621 mmHg 98%
21:00 +4°C° 0.4 mm 1 mps 621 mmHg 98%
22:00 +4°C° 0.3 mm 1 mps 621 mmHg 98%
23:00 +4°C° 0.3 mm 1 mps 621 mmHg 98%
Show more

We Need Your Consent

Meteoprog and our Service Providers may store and access personal data such as cookies, device identifiers or other similar technologies on your device and process such data to personalise content and ads, as well as provide social media features and to analyse the traffic.

  • Store and/or access information on your device

    Cookies, device identifiers or other information can be stored or accessed on your device for the purposes indicated above.

  • Personalised ads and content, ad and content measurement, audience insights, and products development

    Ads and content can be personalised based on a profile. More data can be added to better personalise ads and content. Ad and content performance can be measured. Insights about the audience who saw the ads and content can be derived. Such data can be used to develop or improve user’s experience, systems and software.

By clicking ‘I Agree’ you will allow the use of indicated cookies, device identifiers, web beacons or other similar technologies. Your settings can be changed in the browser on your device.

For certain purposes, legitimate interests may be relied on, rather than consent. You can read more about this in our Privacy and Cookie Policy.